Location: Unspecified
(43.4354°N, 0.0000°E)
Time: 07:06:39
(UTC+00:00)

A-11 Canister half - Pass Details

Date: 27 June 2019
Orbit: 1515 x 1685 km, 47.2° (Epoch: 15 July)

Event Time Altitude Azimuth Distance (km) Brightness Sun altitude
Rises 09:31:08 0° 237° (WSW) 4,922 11.4 52.9°
Reaches altitude 10° 09:34:18 10° 236° (SW) 3,925 11.0 53.5°
Maximum altitude 09:44:22 78° 152° (SSE) 1,673 10.6 55.2°
Drops below altitude 10° 09:54:08 10° 68° (ENE) 3,816 11.6 56.8°
Sets 09:57:11 0° 67° (ENE) 4,780 11.9 57.2°
